• In Hungary
  • List of Countries
  • For 7 days
  • Water Temperature
  • Satellite Maps
  • Weather Map
  • News
  • Weather Widgets
  • user-avatar
    Login

    Hourly Weather Tirana

    Today, 22 January, Monday

    Time Temperature Precipitation Wind Pressure Humidity
    00:00 +5°C° 0 mm 6 mps 745 mmHg 91%
    01:00 +4°C° 0 mm 6 mps 745 mmHg 86%
    02:00 +3°C° 0 mm 6 mps 746 mmHg 84%
    03:00 +3°C° 0 mm 7 mps 747 mmHg 82%
    04:00 +3°C° 0 mm 7 mps 747 mmHg 80%
    05:00 +2°C° 0 mm 7 mps 748 mmHg 78%
    06:00 +2°C° 0 mm 7 mps 748 mmHg 77%
    07:00 0°C° 0 mm 7 mps 749 mmHg 76%
    08:00 +2°C° 0 mm 6 mps 749 mmHg 69%
    09:00 +4°C° 0 mm 6 mps 750 mmHg 62%
    10:00 +5°C° 0 mm 6 mps 750 mmHg 56%
    11:00 +5°C° 0 mm 6 mps 751 mmHg 54%
    12:00 +7°C° 0 mm 6 mps 751 mmHg 52%
    13:00 +7°C° 0 mm 6 mps 751 mmHg 50%
    14:00 +7°C° 0 mm 6 mps 751 mmHg 54%
    15:00 +7°C° 0 mm 5 mps 751 mmHg 57%
    16:00 +6°C° 0 mm 4 mps 752 mmHg 60%
    17:00 +5°C° 0 mm 4 mps 752 mmHg 63%
    18:00 +4°C° 0 mm 3 mps 752 mmHg 65%
    19:00 +3°C° 0 mm 3 mps 753 mmHg 67%
    20:00 +3°C° 0 mm 3 mps 753 mmHg 67%
    21:00 +3°C° 0 mm 3 mps 753 mmHg 66%
    22:00 +4°C° 0 mm 2 mps 754 mmHg 66%
    23:00 +4°C° 0 mm 2 mps 754 mmHg 65%

    Tomorrow, 23 January, Tuesday

    Time Temperature Precipitation Wind Pressure Humidity
    00:00 +4°C° 0 mm 2 mps 754 mmHg 65%
    01:00 +4°C° 0 mm 2 mps 754 mmHg 65%
    02:00 +4°C° 0 mm 2 mps 754 mmHg 65%
    03:00 +4°C° 0 mm 2 mps 754 mmHg 64%
    04:00 +4°C° 0 mm 2 mps 754 mmHg 64%
    05:00 +4°C° 0 mm 2 mps 754 mmHg 63%
    06:00 +4°C° 0 mm 2 mps 754 mmHg 62%
    07:00 +5°C° 0 mm 2 mps 755 mmHg 61%
    08:00 +6°C° 0 mm 2 mps 755 mmHg 57%
    09:00 +8°C° 0 mm 2 mps 756 mmHg 53%
    10:00 +9°C° 0 mm 3 mps 756 mmHg 49%
    11:00 +10°C° 0 mm 3 mps 756 mmHg 48%
    12:00 +11°C° 0 mm 3 mps 756 mmHg 47%
    13:00 +11°C° 0 mm 3 mps 756 mmHg 45%
    14:00 +11°C° 0 mm 3 mps 756 mmHg 51%
    15:00 +10°C° 0 mm 3 mps 757 mmHg 56%
    16:00 +10°C° 0 mm 4 mps 757 mmHg 61%
    17:00 +7°C° 0 mm 4 mps 757 mmHg 63%
    18:00 +7°C° 0 mm 3 mps 758 mmHg 65%
    19:00 +5°C° 0 mm 3 mps 758 mmHg 67%
    20:00 +5°C° 0 mm 4 mps 759 mmHg 67%
    21:00 +5°C° 0 mm 4 mps 759 mmHg 67%
    22:00 +4°C° 0 mm 4 mps 760 mmHg 67%
    23:00 +3°C° 0 mm 5 mps 760 mmHg 68%

    Day after tomorrow, 24 January, Wednesday

    Time Temperature Precipitation Wind Pressure Humidity
    00:00 +3°C° 0 mm 5 mps 761 mmHg 68%
    01:00 +2°C° 0 mm 5 mps 761 mmHg 69%
    02:00 +2°C° 0 mm 5 mps 761 mmHg 69%
    03:00 +2°C° 0 mm 5 mps 761 mmHg 70%
    04:00 +3°C° 0 mm 4 mps 762 mmHg 70%
    05:00 +3°C° 0 mm 4 mps 762 mmHg 70%
    06:00 +3°C° 0 mm 4 mps 763 mmHg 70%
    07:00 +3°C° 0 mm 4 mps 763 mmHg 70%
    08:00 +4°C° 0 mm 4 mps 763 mmHg 65%
    09:00 +6°C° 0 mm 4 mps 764 mmHg 59%
    10:00 +7°C° 0 mm 4 mps 764 mmHg 54%
    11:00 +9°C° 0 mm 3 mps 764 mmHg 51%
    12:00 +10°C° 0 mm 3 mps 764 mmHg 48%
    13:00 +11°C° 0 mm 3 mps 764 mmHg 45%
    14:00 +10°C° 0 mm 3 mps 764 mmHg 49%
    15:00 +10°C° 0 mm 3 mps 764 mmHg 53%
    16:00 +9°C° 0 mm 3 mps 764 mmHg 57%
    17:00 +8°C° 0 mm 3 mps 764 mmHg 59%
    18:00 +7°C° 0 mm 3 mps 764 mmHg 62%
    19:00 +5°C° 0 mm 3 mps 764 mmHg 64%
    20:00 +4°C° 0 mm 3 mps 765 mmHg 64%
    21:00 +4°C° 0 mm 3 mps 765 mmHg 65%
    22:00 +4°C° 0 mm 3 mps 765 mmHg 65%
    23:00 +4°C° 0 mm 3 mps 765 mmHg 65%

    25 January, Thursday

    Time Temperature Precipitation Wind Pressure Humidity
    00:00 +3°C° 0 mm 3 mps 765 mmHg 64%
    01:00 +4°C° 0 mm 2 mps 765 mmHg 64%
    02:00 +4°C° 0 mm 2 mps 764 mmHg 63%
    03:00 +4°C° 0 mm 2 mps 764 mmHg 61%
    04:00 +4°C° 0 mm 2 mps 764 mmHg 60%
    05:00 +4°C° 0 mm 2 mps 764 mmHg 59%
    06:00 +4°C° 0 mm 2 mps 764 mmHg 57%
    07:00 +4°C° 0 mm 2 mps 764 mmHg 56%
    08:00 +6°C° 0 mm 2 mps 764 mmHg 51%
    09:00 +8°C° 0 mm 2 mps 764 mmHg 46%
    10:00 +11°C° 0 mm 1 mps 764 mmHg 40%
    11:00 +11°C° 0 mm 1 mps 763 mmHg 39%
    12:00 +12°C° 0 mm 1 mps 763 mmHg 38%
    13:00 +13°C° 0 mm 1 mps 762 mmHg 37%
    14:00 +12°C° 0 mm 1 mps 762 mmHg 43%
    15:00 +11°C° 0 mm 1 mps 762 mmHg 48%
    16:00 +11°C° 0 mm 1 mps 761 mmHg 54%
    17:00 +10°C° 0 mm 1 mps 761 mmHg 56%
    18:00 +9°C° 0 mm 1 mps 762 mmHg 58%
    19:00 +8°C° 0 mm 1 mps 762 mmHg 59%
    20:00 +7°C° 0 mm 1 mps 762 mmHg 59%
    21:00 +7°C° 0 mm 1 mps 762 mmHg 59%
    22:00 +6°C° 0 mm 2 mps 762 mmHg 58%
    23:00 +6°C° 0 mm 2 mps 762 mmHg 58%

    26 January, Friday

    Time Temperature Precipitation Wind Pressure Humidity
    00:00 +6°C° 0 mm 2 mps 761 mmHg 57%
    01:00 +6°C° 0 mm 2 mps 761 mmHg 56%
    02:00 +6°C° 0 mm 2 mps 761 mmHg 55%
    03:00 +5°C° 0 mm 2 mps 761 mmHg 54%
    04:00 +5°C° 0 mm 2 mps 760 mmHg 54%
    05:00 +5°C° 0 mm 2 mps 760 mmHg 53%
    06:00 +4°C° 0 mm 3 mps 760 mmHg 52%
    07:00 +4°C° 0 mm 3 mps 760 mmHg 51%
    08:00 +7°C° 0 mm 3 mps 760 mmHg 48%
    09:00 +9°C° 0 mm 3 mps 760 mmHg 46%
    10:00 +10°C° 0 mm 3 mps 760 mmHg 43%
    11:00 +11°C° 0 mm 3 mps 760 mmHg 45%
    12:00 +12°C° 0 mm 3 mps 759 mmHg 46%
    13:00 +12°C° 0 mm 3 mps 759 mmHg 48%
    14:00 +12°C° 0 mm 3 mps 759 mmHg 53%
    15:00 +12°C° 0 mm 2 mps 759 mmHg 59%
    16:00 +12°C° 0 mm 2 mps 759 mmHg 64%
    17:00 +10°C° 0 mm 2 mps 759 mmHg 67%
    18:00 +8°C° 0 mm 2 mps 759 mmHg 70%
    19:00 +7°C° 0 mm 3 mps 760 mmHg 73%
    20:00 +7°C° 0 mm 3 mps 760 mmHg 72%
    21:00 +7°C° 0 mm 3 mps 760 mmHg 71%
    22:00 +7°C° 0 mm 3 mps 760 mmHg 71%
    23:00 +7°C° 0 mm 3 mps 760 mmHg 70%

    27 January, Saturday

    Time Temperature Precipitation Wind Pressure Humidity
    00:00 +7°C° 0 mm 3 mps 760 mmHg 70%
    01:00 +5°C° 0 mm 3 mps 760 mmHg 69%
    02:00 +5°C° 0 mm 3 mps 760 mmHg 69%
    03:00 +5°C° 0 mm 3 mps 760 mmHg 69%
    04:00 +5°C° 0 mm 3 mps 760 mmHg 68%
    05:00 +5°C° 0 mm 3 mps 760 mmHg 68%
    06:00 +5°C° 0 mm 3 mps 760 mmHg 68%
    07:00 +5°C° 0 mm 3 mps 761 mmHg 67%
    08:00 +8°C° 0 mm 3 mps 761 mmHg 63%
    09:00 +10°C° 0 mm 3 mps 761 mmHg 58%
    10:00 +11°C° 0 mm 3 mps 761 mmHg 53%
    11:00 +12°C° 0 mm 3 mps 761 mmHg 52%
    12:00 +14°C° 0 mm 2 mps 761 mmHg 52%
    13:00 +14°C° 0 mm 2 mps 761 mmHg 51%
    14:00 +14°C° 0 mm 2 mps 761 mmHg 56%
    15:00 +13°C° 0 mm 2 mps 761 mmHg 61%
    16:00 +13°C° 0 mm 2 mps 761 mmHg 65%
    17:00 +12°C° 0 mm 2 mps 762 mmHg 68%
    18:00 +10°C° 0 mm 2 mps 762 mmHg 70%
    19:00 +10°C° 0 mm 1 mps 763 mmHg 72%
    20:00 +9°C° 0 mm 1 mps 763 mmHg 71%
    21:00 +9°C° 0 mm 1 mps 763 mmHg 70%
    22:00 +9°C° 0 mm 1 mps 764 mmHg 69%
    23:00 +9°C° 0 mm 1 mps 764 mmHg 69%
    Show more